Regional Weather Roundup
Issued by NWS

Home | Current Version | Previous Version | Text Only | Print | Product List | Glossary Off
Versions: 1 2 3 4 5 6 7 8 9 10 11 12 13 14 15 16 17 18 19 20 21 22 23 24 25 26 27 28 29 30 31 32 33 34 35 36 37 38 39 40 41 42 43 44 45 46 47 48 49 50

000
ASUS43 KMKX 312311
RWRWI

WISCONSIN REGIONAL WEATHER ROUNDUP
NATIONAL WEATHER SERVICE MILWAUKEE/SULLIVAN WI
600 PM CDT FRI OCT 31 2014

NOTE: "FAIR" INDICATES FEW OR NO CLOUDS BELOW 12,000 FEET WITH NO
SIGNIFICANT WEATHER AND/OR OBSTRUCTIONS TO VISIBILITY.

WIZ001-002-006>008-014>016-023>028-010000-
NORTHWEST WISCONSIN

CITY           SKY/WX    TMP DP  RH WIND       PRES   REMARKS
SUPERIOR ARPT  CLEAR     34  17  49 CALM      30.50S
ASHLAND        CLEAR     30  20  66 CALM      30.50R
HAYWARD        CLEAR     34  18  52 N3        30.47R
SIREN          CLEAR     34  16  46 CALM      30.49S
CUMBERLAND     CLEAR     32  19  59 N5        30.47S WCI  27
RICE LAKE      CLEAR     34  18  52 N3        30.48F
CHETEK         CLEAR     35  19  53 N5        30.47S WCI  30
LADYSMITH      CLEAR     31  21  66 NE7       30.47F WCI  25
EAU CLAIRE     CLEAR     35  17  47 N5        30.47R WCI  31
MENOMONIE      CLEAR     35  18  50 NW5       30.48S WCI  31
NEW RICHMOND   CLEAR     34  17  48 N3        30.49S
OSCEOLA        CLEAR     35  18  49 NW5       30.52S WCI  31
$$

WIZ003>005-009-010-017-018-010000-
NORTH CENTRAL WISCONSIN

CITY           SKY/WX    TMP DP  RH WIND       PRES   REMARKS
MANITOWISH WTR MOCLDY    28  21  76 N3        30.44R
ARBOR VITAE    CLOUDY    32  24  72 N7        30.43R WCI  25
WOODRUFF       CLOUDY    32  24  72 N7        30.43R WCI  25
RHINELANDER    CLOUDY    30  20  66 N5        30.42R WCI  25
EAGLE RIVER    CLOUDY    29  21  73 N7        30.41S WCI  22
LAND O LAKES   CLOUDY    30  23  76 N7        30.42S WCI  23
PHILLIPS       PTCLDY    29  20  67 N7        30.44S WCI  22
TOMAHAWK       CLOUDY    31  22  69 NW6       30.43S WCI  25
MEDFORD        CLOUDY    31  20  64 N10       30.43R WCI  22
MERRILL        PTCLDY    31  20  64 N8        30.42S WCI  24
$$

WIZ029-030-035-036-043>047-010000-
CENTRAL WISCONSIN

CITY           SKY/WX    TMP DP  RH WIND       PRES   REMARKS
WAUSAU         PTCLDY    33  18  53 N9        30.41R WCI  25
MOSINEE        PTCLDY    32  19  59 N12       30.43R WCI  23
MARSHFIELD     PTCLDY    34  19  54 N7        30.42R WCI  28
STEVENS POINT  PTCLDY    32  16  51 N10G17    30.42R WCI  24
WAUPACA        CLEAR     36  17  44 N9G18     30.41R WCI  29
WAUTOMA        CLEAR     35  16  46 N7        30.41R WCI  29
WISC RAPIDS    PTCLDY    34  17  50 N14       30.44R WCI  25
CAMP DOUGLAS   CLEAR     34  18  51 N1        30.43R
$$

WIZ011>013-019>022-031-037>040-048>050-010000-
NORTHEAST WISCONSIN

CITY           SKY/WX    TMP DP  RH WIND       PRES   REMARKS
ANTIGO         PTCLDY    29  17  61 N9        30.41R WCI  21
SHAWANO        CLOUDY    37  19  49 N12G18    30.41R WCI  29
OCONTO         MOCLDY    33  21  61 N9        30.40R WCI  25
STURGEON BAY   CLOUDY    36  19  51 N22G30    30.38R WCI  24
GREEN BAY      MOCLDY    35  20  54 N18G28    30.39R WCI  24
MANITOWOC      CLOUDY    36  21  54 N13G24    30.37R WCI  27
APPLETON       MOCLDY    36  18  48 N17       30.38R WCI  25
CLINTONVILLE   MOCLDY    34  18  51 N12G18    30.41R WCI  25
OSHKOSH        MOCLDY    36  20  52 N13       30.38R WCI  27
$$

WIZ032>034-041-042-053>061-010000-
SOUTHWEST WISCONSIN

CITY           SKY/WX    TMP DP  RH WIND       PRES   REMARKS
LA CROSSE      CLEAR     39  19  44 N9        30.45S WCI  33
SPARTA         MOCLDY    37  18  46 N7        30.45R WCI  31
VIROQUA        CLEAR     34  19  53 N8        30.41S WCI  27
BOSCOBEL       CLEAR     39  16  39 N10       30.43R WCI  32
PRAIRIE DU CHI CLEAR     39  15  37 N6G16     30.43R WCI  35
PLATTEVILLE    CLEAR     36  19  50 N12       30.41R WCI  27
$$

WIZ056-057-062-063-064-067-068-010000-
SOUTH CENTRAL WISCONSIN

CITY           SKY/WX    TMP DP  RH WIND       PRES   REMARKS
REEDSBURG      CLEAR     35  17  49 N13G18    30.41R WCI  26
BARABOO/DELLS  CLEAR     35  16  45 N6G16     30.40R WCI  30
LONE ROCK      CLEAR     40  16  37 N13       30.42R WCI  32
MINERAL POINT  PTCLDY    36  16  44 N10G18    30.39R WCI  28
MADISON        MOCLDY    36  17  46 N9        30.39R WCI  29
MIDDLETON      PTCLDY    36  17  46 N10       30.40R WCI  28
WATERTOWN      MOCLDY    35  19  53 N13       30.36R WCI  26
MONROE         PTCLDY    34  21  60 N16G24    30.36R WCI  23
JANESVILLE     MOCLDY    39  18  41 N17G23    30.35R WCI  30
$$

WIZ051-052-058>065-066-070>072-010000-
SOUTHEAST WISCONSIN

CITY           SKY/WX    TMP DP  RH WIND       PRES   REMARKS
MILWAUKEE      MOCLDY    37  19  48 N15G32    30.33R WCI  28
WAUKESHA       MOCLDY    36  18  48 N17G23    30.34R WCI  25
MILWAUKEE/TIMM CLOUDY    36  18  48 N16G23    30.35R WCI  26
RACINE         CLOUDY    37  19  48 N18G32    30.32R WCI  27
BURLINGTON     MOCLDY    35  16  46 N15G26    30.33R WCI  25
KENOSHA        CLOUDY    37  20  50 N16G28    30.31R WCI  28
FOND DU LAC    MOCLDY    36  18  48 N17G26    30.38R WCI  26
SHEBOYGAN      MOCLDY    35  18  49 N10G23    30.36R WCI  27
WEST BEND      CLOUDY    34  18  51 N16G22    30.35R WCI  23
JUNEAU         PTCLDY    34  19  55 N15G21    30.38R WCI  24
$$

LSZ147-162-010000-
LAKE SUPERIOR

STATION/POSITION TIME  TEMP    WIND        PRES    WAVE
                       AIR SEA DIR/SP/G            HT/PER
                 (UTC) (F)     (DEG/KT/KT) (MB)    (FT/S)
W MID LAKE BUOY  2250   36 43  310/ 10/ 12 1032.8R   4/ 7
DEVILS ISLAND    2300   35     310/  4/  5 1033.8R
PORT WING        2200   38     340/  2/  4 1032.8S
SAXON HARBOR     2240   35     340/  6/  7 1032.5R
$$

LMZ867-665-643>646-010000-
LAKE MICHIGAN

STATION/POSITION TIME  TEMP    WIND        PRES    WAVE
                       AIR SEA DIR/SP/G            HT/PER
                 (UTC) (F)     (DEG/KT/KT) (MB)    (FT/S)
CHAMBERS ISLAND  2200   37     340/ 25/ 30 1028.4R
N MID LAKE BUOY  2250   36 47  360/ 25/ 33 1027.8R   8/ 7
NORTHPORT PIER   2217   36      10/ 25/ 38 1028.1R
KEWAUNEE LAKESHO 2200   36     360/ 15/ 23 1026.7R
SHEBOYGAN LAKESH 2300   37 47   10/ 31/ 33 1028.7R
PORT WASHINGTON  2220   37     360/ 12     1028.1R
ATWATER BUOY     2300   40     360/ 27/ 33 1027.2R
MILWAUKEE LAKESH 2200   38     350/ 20/ 31   N/A
S MID LAKE BUOY  2250   40 47  360/ 31/ 39 1024.1R  16/10
KENOSHA   LAKESH 2300   38     340/ 27/ 35 1025.4R
$$

TC  - TEMPERATURE IN CELSIUS
VSB - VISIBILITY IN STATUTE MILES
WCI - WIND CHILL INDEX
HX  - HEAT INDEX




USA.gov is the U.S. government's official web portal to all federal, state and local government web resources and services.